User: anonymous   Login
Location: Wawayanda State Park
(41.1833°N, 74.4333°W)
Time: 09:33:29
(UTC-04:00)
Language:

RESURS DK-1 - Orbit

View from above orbital plane
View from above orbital plane
View from above satellite
View from above satellite

Ground track
Ground track

The orbit data is extracted from the following two-line orbital elements,

1 29228U 06021A   17228.23771890  .00000063  00000-0  12200-4 0  9997
2 29228  69.9362 305.2957 0007661 258.1177 101.9125 15.02182906617111
Epoch (UTC): 16 August 2017 05:42:18
Eccentricity: 0.0007661
inclination: 69.9362°
perigee height: 555 km
apogee height: 565 km
right ascension of ascending node: 305.2957°
argument of perigee: 258.1177°
revolutions per day: 15.02182906
mean anomaly at epoch: 101.9125°
orbit number at epoch: 61711

The dashed part of the orbit path shows where the satellite is in the earth's shadow,  

DLR